{"data":{"norad_id":61516,"intl_designator":"2024-183H","name":"STARLINK-32047","alt_names":[],"object_type":"PAYLOAD","status":"ACTIVE","operator":null,"country":"US","launch_date":"2024-10-15","launch_site_code":"AFETR","launch_vehicle":null,"mission":null,"orbit_class":"UNKNOWN","rcs_meters":null,"size_class":null,"mass_kg":null,"dimensions":null,"purposes":["comms"],"wikipedia_slug":null,"has_3d_model":false,"image_url":null,"decayed_at":null,"tle_current":{"epoch":"2026-09-21T10:17:32.749728Z","epoch_age_seconds":111908,"freshness":"FRESH","line1":"1 61516U 24183H   26264.42885127  .00000066  00000+0  13897-4 0  9997","line2":"2 61516  53.1597 311.6477 0001533  91.0520 269.0657 15.31704931109648","mean_motion":15.31704931,"eccentricity":0.0001533,"inclination_deg":53.1597,"raan_deg":311.6477,"arg_perigee_deg":91.052,"mean_anomaly_deg":269.0657,"bstar":1.3897e-5,"rev_number":10964,"period_min":94.012885305518,"perigee_km":469.67536562066,"apogee_km":471.77522680068,"semimajor_km":6848.8622962107,"source":"CELESTRAK","updated_at":"2026-09-22T09:00:49.355840Z"}}}